EW5239 Weather Reports


Display with metric or nautical units.
time (UTC)temp
F
wind
direction
speed
MPH
gust
MPH
rain 1hr
in
rain 24hr
in
rain mn
in
humidity
%
barometer
mb
20260507223505 50 342 4.0 6.0 0.00 0.11 0.00 95 1013.6
20260507223005 50 342 3.0 5.0 0.00 0.11 0.00 94 1013.5
20260507223003 49 346 3.0 5.0 0.00 0.14 0.00 96 1015.4
20260507222505 50 320 3.0 6.0 0.00 0.11 0.00 94 1013.5
20260507222503 49 350 3.0 5.0 0.00 0.14 0.00 96 1015.5
20260507222005 50 317 3.0 6.0 0.00 0.11 0.00 94 1013.4
20260507221505 50 333 2.0 5.0 0.00 0.11 0.00 94 1013.5
20260507221503 50 349 3.0 5.0 0.00 0.15 0.00 96 1015.2
20260507220505 50 319 2.0 6.0 0.00 0.12 0.00 94 1013.5
20260507220005 50 338 3.0 7.0 0.00 0.12 0.00 94 1013.4
20260507215505 50 354 3.0 7.0 0.00 0.12 0.12 94 1013.3
20260507215503 50 2 3.0 7.0 0.00 0.15 0.15 97 1015.1
20260507215005 50 1 3.0 7.0 0.00 0.12 0.12 94 1013.3
20260507215003 50 14 3.0 7.0 0.00 0.15 0.15 97 1015.0
20260507214505 50 352 3.0 5.0 0.00 0.12 0.12 94 1013.3
20260507214005 50 345 4.0 5.0 0.00 0.12 0.12 94 1013.3
20260507213505 50 344 4.0 5.0 0.00 0.12 0.12 94 1013.3
20260507213503 50 23 3.0 5.0 0.00 0.15 0.15 96 1015.0
20260507213004 50 349 5.0 8.0 0.00 0.13 0.12 94 1013.2
20260507212505 51 352 5.0 8.0 0.00 0.13 0.12 94 1013.2
20260507212003 50 14 4.0 6.0 0.00 0.17 0.15 96 1015.0
20260507211505 50 351 4.0 8.0 0.00 0.13 0.12 94 1013.1
20260507211503 50 17 4.0 7.0 0.00 0.18 0.15 96 1014.9
20260507211005 50 343 5.0 8.0 0.00 0.13 0.12 94 1013.1
20260507211003 50 20 4.0 7.0 0.00 0.18 0.15 96 1015.1
20260507210505 50 321 4.0 6.0 0.00 0.14 0.12 94 1013.3
20260507210503 50 32 4.0 7.0 0.00 0.18 0.15 96 1014.8
20260507210009 50 23 3.0 5.0 0.00 0.22 0.15 96 1014.9
20260507210005 51 321 4.0 6.0 0.00 0.19 0.12 95 1013.3
20260507205503 50 331 3.0 6.0 0.00 0.25 0.15 96 1015.1
20260507205005 51 346 4.0 7.0 0.00 0.32 0.12 95 1013.1
20260507205003 50 349 3.0 6.0 0.00 0.38 0.15 96 1014.9
20260507204505 51 348 3.0 4.0 0.00 0.32 0.12 95 1013.3
20260507204003 50 335 3.0 4.0 0.00 0.38 0.15 96 1015.0
20260507203505 51 349 4.0 8.0 0.00 0.32 0.12 94 1013.2
20260507203005 51 349 4.0 8.0 0.00 0.32 0.12 94 1013.0
20260507203003 50 351 4.0 7.0 0.00 0.38 0.15 96 1015.0
20260507202505 51 345 3.0 6.0 0.00 0.32 0.12 94 1013.3
20260507202503 50 348 3.0 6.0 0.00 0.38 0.15 95 1014.9
20260507202005 51 325 3.0 7.0 0.00 0.32 0.12 94 1013.0
20260507202003 50 327 3.0 6.0 0.00 0.38 0.15 95 1014.9
20260507201504 51 333 4.0 7.0 0.00 0.32 0.12 94 1013.1
20260507201005 51 355 5.0 6.0 0.00 0.32 0.12 94 1012.8
20260507201003 50 6 3.0 5.0 0.00 0.38 0.15 95 1014.8
20260507200505 51 1 4.0 7.0 0.00 0.32 0.12 94 1012.9
20260507200503 50 344 4.0 7.0 0.00 0.38 0.15 95 1014.7
20260507200009 50 328 4.0 7.0 0.00 0.38 0.15 95 1014.5
20260507200005 51 336 5.0 7.0 0.00 0.32 0.12 94 1012.8
20260507195505 51 324 4.0 7.0 0.00 0.32 0.12 94 1012.9
20260507195503 50 345 3.0 7.0 0.00 0.38 0.15 95 1014.6
20260507195003 50 13 3.0 5.0 0.00 0.38 0.15 95 1014.8
20260507194505 51 312 3.0 5.0 0.00 0.32 0.12 94 1012.9
20260507194503 51 356 3.0 5.0 0.00 0.38 0.15 94 1014.6
20260507194005 51 296 5.0 8.0 0.00 0.32 0.12 94 1012.7
20260507193505 51 318 5.0 8.0 0.00 0.32 0.12 93 1012.8
20260507193503 51 357 5.0 8.0 0.00 0.38 0.15 94 1014.3
20260507193005 51 345 5.0 8.0 0.00 0.32 0.12 93 1012.6
20260507192505 51 342 5.0 7.0 0.00 0.32 0.12 93 1012.5
20260507192503 51 13 5.0 7.0 0.00 0.38 0.15 94 1014.2
20260507192005 51 335 5.0 7.0 0.00 0.32 0.12 93 1012.5
20260507191503 51 340 4.0 6.0 0.00 0.38 0.15 94 1014.2
20260507191005 51 339 4.0 6.0 0.00 0.32 0.12 93 1012.5
20260507191003 51 351 4.0 5.0 0.00 0.38 0.15 93 1014.2
20260507190505 51 331 4.0 6.0 0.00 0.32 0.12 93 1012.4
20260507190010 51 24 4.0 6.0 0.00 0.38 0.15 93 1014.1
20260507185505 52 318 5.0 6.0 0.00 0.32 0.12 92 1012.5
20260507185503 51 7 4.0 6.0 0.00 0.38 0.15 93 1014.2
20260507184505 52 325 5.0 8.0 0.00 0.32 0.12 91 1012.2
20260507184503 51 337 5.0 9.0 0.00 0.38 0.15 93 1013.9
20260507184005 52 313 6.0 8.0 0.00 0.32 0.12 91 1012.1
20260507184003 52 334 6.0 9.0 0.00 0.38 0.15 93 1014.0
20260507183505 52 312 5.0 8.0 0.00 0.32 0.12 91 1012.0
20260507183005 52 334 5.0 8.0 0.00 0.32 0.12 91 1012.0
20260507183003 52 340 4.0 7.0 0.00 0.38 0.15 91 1013.8
20260507182505 52 351 4.0 6.0 0.00 0.32 0.12 90 1011.9
20260507182503 52 357 4.0 5.0 0.00 0.38 0.15 91 1013.8
20260507182005 53 337 4.0 5.0 0.00 0.32 0.12 90 1011.8
20260507182003 52 7 3.0 6.0 0.00 0.38 0.15 91 1013.6
20260507181505 53 322 4.0 5.0 0.00 0.32 0.12 90 1011.8
20260507181003 52 357 4.0 6.0 0.00 0.38 0.15 91 1013.6
20260507180505 53 349 5.0 7.0 0.00 0.32 0.12 90 1011.6
20260507180009 53 353 4.0 6.0 0.00 0.38 0.15 91 1013.6
20260507180005 53 356 5.0 7.0 0.00 0.32 0.12 90 1011.7
20260507175504 53 331 4.0 8.0 0.00 0.38 0.15 91 1013.7
20260507175005 53 332 5.0 7.0 0.00 0.32 0.12 89 1011.4
20260507175003 53 355 5.0 8.0 0.00 0.38 0.15 90 1013.3
20260507174505 53 334 5.0 7.0 0.00 0.32 0.12 89 1011.5
20260507174503 53 11 5.0 6.0 0.00 0.38 0.15 90 1013.3
20260507174004 54 317 5.0 8.0 0.00 0.32 0.12 88 1011.4
20260507173505 54 288 6.0 8.0 0.00 0.32 0.12 88 1011.5
20260507173503 53 17 6.0 9.0 0.00 0.38 0.15 90 1013.3
20260507173005 54 320 5.0 7.0 0.00 0.32 0.12 88 1011.5
20260507172505 54 349 4.0 7.0 0.00 0.32 0.12 88 1011.4
20260507172503 53 12 4.0 7.0 0.00 0.38 0.15 89 1013.2
20260507172005 54 324 4.0 7.0 0.00 0.32 0.12 88 1011.3
20260507172003 54 30 4.0 6.0 0.00 0.38 0.15 88 1013.4
20260507171504 54 324 4.0 7.0 0.00 0.32 0.12 88 1011.2
20260507171003 54 16 5.0 6.0 0.00 0.38 0.15 88 1013.3
20260507170505 54 323 5.0 6.0 0.00 0.32 0.12 88 1011.0
20260507170503 54 15 4.0 6.0 0.00 0.38 0.15 88 1013.0
20260507170010 54 4 4.0 6.0 0.00 0.38 0.15 88 1013.1
20260507170006 55 314 4.0 6.0 0.00 0.32 0.12 87 1011.0
20260507165505 55 312 5.0 7.0 0.00 0.32 0.12 87 1011.2
20260507165503 54 11 4.0 6.0 0.00 0.38 0.15 88 1012.9
20260507165004 55 333 5.0 7.0 0.00 0.32 0.12 87 1011.0
20260507164505 55 346 4.0 7.0 0.00 0.32 0.12 87 1010.9
20260507164003 54 337 5.0 8.0 0.00 0.38 0.15 87 1012.9
20260507163504 55 338 6.0 9.0 0.00 0.32 0.12 87 1010.8
20260507163005 55 337 5.0 9.0 0.00 0.32 0.12 87 1010.6
20260507162003 55 357 6.0 9.0 0.00 0.38 0.15 87 1012.7
20260507161004 56 1 7.0 8.0 0.00 0.32 0.12 87 1010.7
20260507160505 56 357 8.0 8.0 0.00 0.32 0.12 87 1010.6
20260507160503 55 39 6.0 9.0 0.00 0.38 0.15 86 1012.5
20260507160005 56 341 7.0 8.0 0.00 0.32 0.12 87 1010.7
20260507155503 55 295 7.0 10.0 0.00 0.38 0.15 86 1012.4
20260507155005 56 331 7.0 10.0 0.00 0.32 0.12 87 1010.7
20260507154505 56 315 6.0 8.0 0.00 0.32 0.12 86 1010.7
20260507154503 56 10 6.0 10.0 0.00 0.38 0.15 86 1012.6
20260507154005 56 330 6.0 10.0 0.00 0.32 0.12 86 1010.6
20260507154003 56 354 6.0 11.0 0.00 0.38 0.15 85 1012.5
20260507153505 57 338 6.0 10.0 0.00 0.32 0.12 86 1010.7
20260507153503 57 358 6.0 11.0 0.00 0.38 0.15 85 1012.4
20260507153003 57 357 6.0 8.0 0.00 0.38 0.15 84 1012.4
20260507152505 58 324 5.0 8.0 0.00 0.32 0.12 85 1010.3
20260507152503 58 353 5.0 7.0 0.00 0.38 0.15 84 1012.0
20260507152005 58 322 5.0 8.0 0.00 0.32 0.12 85 1010.1
20260507152003 58 321 5.0 7.0 0.00 0.38 0.15 84 1012.0
20260507151505 58 330 6.0 8.0 0.00 0.32 0.12 85 1010.1
20260507151005 59 326 5.0 8.0 0.00 0.32 0.12 85 1010.3
20260507150009 60 349 6.0 8.0 0.01 0.38 0.15 83 1012.0
20260507150006 60 314 6.0 8.0 0.00 0.32 0.12 84 1010.1
20260507145504 60 318 6.0 8.0 0.00 0.32 0.12 84 1010.0
20260507145005 60 317 7.0 12.0 0.00 0.32 0.12 85 1010.3
20260507145003 60 357 7.0 12.0 0.01 0.38 0.15 83 1012.0
20260507144503 60 348 7.0 12.0 0.01 0.38 0.15 84 1011.8
20260507144006 60 304 6.0 9.0 0.00 0.32 0.12 86 1010.3
20260507143505 60 335 7.0 9.0 0.00 0.32 0.12 86 1010.4
20260507143503 60 321 6.0 8.0 0.01 0.38 0.15 85 1011.9
20260507143005 60 348 7.0 8.0 0.00 0.32 0.12 86 1010.2
20260507142505 60 332 6.0 9.0 0.00 0.32 0.12 86 1010.3
20260507142005 60 331 6.0 10.0 0.00 0.32 0.12 86 1010.3
20260507141505 60 325 6.0 10.0 0.00 0.32 0.12 86 1010.1
20260507141503 60 334 7.0 10.0 0.01 0.38 0.15 85 1011.6
20260507141007 60 321 5.0 9.0 0.00 0.32 0.12 86 1010.0
20260507140505 60 319 4.0 4.0 0.00 0.32 0.12 86 1010.1
20260507140010 59 332 4.0 5.0 0.00 0.37 0.14 85 1012.0
20260507140006 60 315 4.0 5.0 0.00 0.32 0.12 86 1010.2
20260507135505 60 294 4.0 8.0 0.00 0.32 0.12 87 1010.5
20260507135503 59 353 4.0 8.0 0.00 0.37 0.14 85 1012.0
20260507135005 60 296 4.0 8.0 0.00 0.32 0.12 87 1010.2
20260507135003 59 354 4.0 8.0 0.00 0.37 0.14 85 1011.9
20260507134504 59 326 4.0 5.0 0.00 0.37 0.14 85 1011.9
20260507134005 60 295 5.0 8.0 0.00 0.32 0.12 86 1010.3
20260507134003 60 291 5.0 8.0 0.00 0.37 0.14 84 1012.0
20260507133503 60 280 5.0 8.0 0.00 0.37 0.14 84 1012.0
20260507133003 60 275 4.0 6.0 0.00 0.37 0.14 84 1012.1
20260507132505 60 303 4.0 5.0 0.00 0.32 0.12 87 1010.2
20260507132003 61 305 4.0 6.0 0.00 0.37 0.14 84 1011.9
20260507131505 61 300 4.0 6.0 0.00 0.32 0.12 87 1010.2
20260507131005 61 307 3.0 4.0 0.00 0.32 0.12 86 1010.1
20260507131003 61 298 3.0 4.0 0.00 0.37 0.14 83 1011.7
20260507130505 61 304 4.0 5.0 0.00 0.32 0.12 87 1010.1
20260507130503 61 304 4.0 5.0 0.00 0.37 0.14 84 1011.6
20260507130005 61 313 4.0 5.0 0.00 0.32 0.12 87 1009.9
20260507125505 61 336 4.0 7.0 0.00 0.32 0.12 88 1009.9
20260507125503 60 11 4.0 8.0 0.00 0.37 0.14 84 1011.4
20260507125005 60 324 3.0 8.0 0.00 0.32 0.12 89 1009.9
20260507124504 60 22 3.0 8.0 0.00 0.37 0.14 84 1011.7
20260507124003 60 19 3.0 4.0 0.00 0.37 0.14 85 1011.6
20260507123504 60 36 2.0 4.0 0.00 0.37 0.14 86 1011.4
20260507123003 60 350 2.0 4.0 0.00 0.37 0.14 86 1011.6
20260507122504 60 322 1.0 5.0 0.00 0.32 0.12 93 1010.0
20260507122005 60 271 2.0 5.0 0.00 0.32 0.12 94 1010.0
20260507121505 60 215 3.0 5.0 0.00 0.32 0.12 95 1010.2
20260507121503 59 29 3.0 4.0 0.00 0.37 0.14 89 1011.7
20260507121005 59 158 3.0 3.0 0.00 0.32 0.12 95 1010.0
20260507121003 59 52 2.0 3.0 0.00 0.37 0.14 89 1011.7
20260507120503 59 77 2.0 5.0 0.00 0.37 0.14 90 1011.8
20260507115505 58 7 1.0 5.0 0.00 0.32 0.12 98 1009.9
20260507115004 58 337 1.0 4.0 0.00 0.32 0.12 99 1009.9
20260507114505 58 331 3.0 5.0 0.00 0.32 0.12 99 1010.1
20260507114503 58 64 3.0 4.0 0.00 0.37 0.14 94 1011.6
20260507114005 57 330 2.0 5.0 0.00 0.32 0.12 99 1009.9
20260507113505 57 351 1.0 4.0 0.00 0.32 0.12 99 1010.0
20260507113503 57 347 2.0 4.0 0.00 0.37 0.14 96 1011.8
20260507113005 57 348 1.0 3.0 0.00 0.32 0.12 99 1010.2
20260507112505 56 4 0.0 3.0 0.00 0.32 0.12 99 1010.3
20260507112503 57 338 3.0 4.0 0.00 0.37 0.14 97 1011.8
20260507112005 56 2 1.0 4.0 0.00 0.32 0.12 99 1010.3
20260507112003 57 6 3.0 4.0 0.00 0.37 0.14 99 1012.0
20260507111506 56 1 1.0 4.0 0.00 0.32 0.12 99 1010.2
20260507111503 57 44 2.0 4.0 0.00 0.37 0.14 99 1011.6
20260507111004 56 158 1.0 3.0 0.00 0.32 0.12 99 1010.1
20260507110505 56 158 1.0 3.0 0.00 0.32 0.12 99 1009.9
20260507110503 56 70 2.0 3.0 0.00 0.37 0.14 99 1011.7
20260507110005 55 0 0.0 0.0 0.00 0.32 0.12 99 1009.9
20260507105504 55 337 0.0 2.0 0.00 0.32 0.12 97 1010.0
20260507105005 55 331 2.0 5.0 0.00 0.32 0.12 97 1009.9
20260507104505 55 321 3.0 5.0 0.00 0.32 0.12 97 1009.9
20260507104004 54 302 3.0 5.0 0.00 0.32 0.12 97 1009.7
20260507103503 55 67 3.0 4.0 0.00 0.37 0.14 97 1011.5
20260507103005 54 292 1.0 5.0 0.00 0.32 0.12 97 1009.6
20260507102505 54 315 1.0 4.0 0.00 0.32 0.12 97 1009.7
20260507102503 55 67 2.0 4.0 0.00 0.37 0.14 97 1011.4
20260507102007 54 321 0.0 4.0 0.00 0.32 0.12 97 1009.6
20260507102004 54 347 2.0 4.0 0.00 0.37 0.14 97 1011.1
20260507101506 54 324 1.0 3.0 0.00 0.32 0.12 97 1009.7
20260507101503 54 309 2.0 4.0 0.00 0.37 0.14 97 1011.1
20260507101004 54 334 3.0 3.0 0.00 0.32 0.12 97 1009.5
20260507100504 54 1 2.0 3.0 0.00 0.37 0.14 97 1011.2
20260507100005 53 338 2.0 4.0 0.00 0.32 0.12 98 1009.3
20260507095505 53 330 2.0 4.0 0.00 0.32 0.12 98 1009.2
20260507095503 54 339 3.0 4.0 0.00 0.37 0.14 97 1010.8
20260507095003 54 357 3.0 4.0 0.00 0.37 0.14 97 1010.9
20260507094505 53 354 3.0 5.0 0.00 0.32 0.12 98 1009.2
20260507094503 54 352 4.0 4.0 0.00 0.37 0.14 97 1010.7
20260507094005 53 359 3.0 5.0 0.00 0.32 0.12 98 1009.1
20260507094003 54 345 4.0 4.0 0.00 0.37 0.14 97 1010.7
20260507093504 53 316 3.0 4.0 0.00 0.32 0.12 98 1009.1
20260507093003 53 350 3.0 4.0 0.00 0.37 0.14 98 1011.0
20260507092505 53 349 3.0 5.0 0.00 0.32 0.12 98 1009.1
20260507092004 53 347 4.0 5.0 0.00 0.32 0.12 98 1009.2
20260507091505 53 343 3.0 4.0 0.00 0.32 0.12 98 1009.2
20260507091003 53 348 3.0 4.0 0.00 0.37 0.14 98 1010.5
20260507090504 53 344 4.0 4.0 0.00 0.32 0.12 98 1008.9
20260507090009 53 344 3.0 4.0 0.00 0.37 0.14 98 1010.5
20260507090006 53 336 3.0 4.0 0.00 0.32 0.12 98 1008.8
20260507085505 53 356 3.0 4.0 0.00 0.32 0.12 98 1008.7
20260507085004 53 357 4.0 5.0 0.00 0.32 0.12 98 1008.6
20260507084505 53 351 4.0 6.0 0.00 0.32 0.12 98 1008.6
20260507084005 53 336 4.0 6.0 0.00 0.32 0.12 98 1008.5
20260507084003 53 351 4.0 6.0 0.00 0.37 0.14 98 1010.4
20260507083505 53 341 4.0 6.0 0.00 0.32 0.12 98 1008.4
20260507083004 53 25 4.0 5.0 0.00 0.37 0.14 98 1010.0
20260507082505 53 346 4.0 6.0 0.00 0.32 0.12 98 1008.3
20260507082003 53 343 4.0 7.0 0.00 0.37 0.14 98 1009.9
20260507081504 53 349 4.0 7.0 0.00 0.37 0.14 98 1009.5
20260507081005 53 1 5.0 6.0 0.00 0.32 0.12 98 1008.1
20260507080505 53 355 5.0 5.0 0.00 0.32 0.12 98 1008.0
20260507080009 53 342 4.0 6.0 0.00 0.37 0.14 98 1009.8
20260507080005 53 339 5.0 6.0 0.00 0.32 0.12 98 1008.1
20260507075505 53 326 4.0 6.0 0.00 0.32 0.12 98 1008.1
20260507075005 53 339 5.0 7.0 0.00 0.32 0.12 98 1008.0
20260507074504 53 342 5.0 7.0 0.00 0.32 0.12 98 1007.9
20260507074005 54 325 5.0 7.0 0.00 0.32 0.12 97 1007.9
20260507073505 54 302 4.0 5.0 0.00 0.32 0.12 97 1007.8
20260507073503 53 322 4.0 6.0 0.00 0.37 0.14 98 1009.6
20260507073004 53 294 4.0 6.0 0.00 0.37 0.14 98 1009.5
20260507072505 54 318 4.0 6.0 0.01 0.32 0.12 97 1007.7
20260507072005 54 313 5.0 8.0 0.02 0.32 0.12 97 1007.7
20260507071505 54 319 5.0 8.0 0.02 0.32 0.12 97 1007.6
20260507071005 54 325 5.0 8.0 0.02 0.32 0.12 97 1007.5
20260507070504 54 331 5.0 7.0 0.04 0.32 0.12 97 1007.5
20260507070009 55 328 4.0 7.0 0.04 0.32 0.12 97 1007.4
20260507065505 55 316 3.0 5.0 0.04 0.32 0.12 97 1007.3
20260507065503 55 316 3.0 4.0 0.04 0.37 0.14 97 1009.1
20260507065004 55 344 2.0 4.0 0.04 0.37 0.14 99 1009.0
20260507064505 55 326 2.0 4.0 0.04 0.32 0.12 97 1007.0
20260507064005 55 355 3.0 5.0 0.04 0.32 0.12 97 1006.8
20260507064003 55 21 3.0 4.0 0.04 0.37 0.14 97 1008.7
20260507063505 55 352 4.0 6.0 0.04 0.32 0.12 97 1006.7
20260507063005 55 354 4.0 6.0 0.02 0.31 0.11 97 1006.6
20260507063003 55 31 4.0 5.0 0.05 0.37 0.14 97 1008.4
20260507062504 55 9 3.0 5.0 0.04 0.35 0.13 97 1008.3
20260507062005 55 332 2.0 3.0 0.04 0.30 0.09 97 1006.8
20260507062003 55 335 2.0 3.0 0.05 0.34 0.12 97 1008.5
20260507061505 55 324 2.0 3.0 0.06 0.30 0.09 97 1006.8
20260507061503 55 345 2.0 3.0 0.07 0.34 0.12 97 1008.3
20260507061004 55 322 3.0 3.0 0.06 0.30 0.09 97 1006.7
20260507060505 55 318 3.0 3.0 0.05 0.28 0.08 97 1006.7
20260507060503 55 347 2.0 3.0 0.06 0.33 0.11 97 1008.5
20260507060010 55 331 2.0 4.0 0.06 0.33 0.11 97 1008.4
20260507060005 55 328 2.0 4.0 0.05 0.28 0.08 97 1006.6
20260507055504 55 338 3.0 4.0 0.05 0.28 0.08 97 1006.7
20260507055005 55 340 3.0 4.0 0.05 0.28 0.08 97 1006.6
20260507055003 55 357 3.0 4.0 0.06 0.33 0.11 97 1008.4
20260507054505 55 334 3.0 4.0 0.05 0.28 0.08 97 1006.4
20260507054003 55 336 3.0 4.0 0.06 0.33 0.11 97 1008.4
20260507053505 55 308 2.0 4.0 0.05 0.28 0.08 97 1006.4
20260507053503 55 329 3.0 4.0 0.06 0.33 0.11 97 1008.3
20260507053005 55 324 2.0 3.0 0.05 0.28 0.08 97 1006.4
20260507052504 55 304 3.0 4.0 0.04 0.27 0.07 97 1006.5
20260507052003 55 277 3.0 4.0 0.01 0.28 0.06 97 1008.2
20260507051504 55 285 3.0 4.0 0.00 0.27 0.05 97 1008.1
20260507051004 55 286 2.0 3.0 0.00 0.24 0.04 97 1006.4
20260507050505 55 277 1.0 2.0 0.00 0.24 0.04 99 1006.3
20260507050503 55 263 1.0 2.0 0.00 0.27 0.05 97 1008.0
20260507050009 55 287 1.0 2.0 0.00 0.27 0.05 97 1008.0
20260507050005 55 306 1.0 2.0 0.00 0.24 0.04 99 1006.2
20260507045505 55 310 1.0 2.0 0.00 0.24 0.04 99 1006.2
20260507045003 55 355 1.0 2.0 0.00 0.27 0.05 99 1007.7
20260507044504 55 330 1.0 2.0 0.00 0.24 0.04 99 1006.0
20260507044005 55 337 1.0 2.0 0.00 0.24 0.04 99 1005.9
20260507043505 55 6 2.0 2.0 0.00 0.24 0.04 99 1005.8
20260507043503 55 23 1.0 2.0 0.01 0.27 0.05 99 1007.6
20260507043004 55 12 1.0 2.0 0.00 0.24 0.04 99 1005.8
20260507042503 55 17 0.0 2.0 0.01 0.27 0.05 97 1007.6
20260507042005 55 341 2.0 3.0 0.00 0.24 0.04 99 1005.6
20260507041504 55 354 2.0 3.0 0.00 0.24 0.04 99 1005.6
20260507041004 55 41 2.0 3.0 0.01 0.27 0.05 97 1007.3
20260507040505 55 356 2.0 2.0 0.00 0.24 0.04 99 1005.6
20260507040503 55 40 2.0 3.0 0.01 0.27 0.05 97 1007.4
20260507040005 55 333 2.0 2.0 0.00 0.24 0.04 99 1005.6
20260507035505 56 318 2.0 3.0 0.00 0.24 0.04 99 1005.6
20260507035005 56 313 2.0 3.0 0.00 0.24 0.04 99 1005.6
20260507034505 56 297 1.0 2.0 0.00 0.24 0.04 99 1005.4
20260507034503 56 312 1.0 2.0 0.01 0.27 0.05 99 1007.1
20260507034005 56 294 1.0 2.0 0.00 0.24 0.04 99 1005.4
20260507033505 56 300 1.0 2.0 0.00 0.24 0.04 99 1005.3
20260507033503 56 315 1.0 2.0 0.00 0.26 0.04 99 1007.2
20260507032504 56 264 2.0 5.0 0.00 0.24 0.04 99 1005.1
20260507032005 56 298 3.0 5.0 0.00 0.24 0.04 99 1005.4
20260507031505 56 300 2.0 5.0 0.00 0.24 0.04 99 1005.6
20260507031004 56 276 1.0 3.0 0.00 0.26 0.04 99 1007.2
20260507030505 56 286 3.0 4.0 0.00 0.24 0.04 99 1005.3
20260507030503 56 279 3.0 4.0 0.00 0.26 0.04 99 1007.0
20260507030009 56 281 3.0 4.0 0.00 0.26 0.04 99 1007.2
20260507025504 56 272 3.0 4.0 0.00 0.24 0.04 99 1005.2
20260507025005 56 278 2.0 4.0 0.00 0.24 0.04 99 1005.1
20260507024503 56 243 1.0 2.0 0.00 0.26 0.04 99 1006.8
20260507024004 56 202 1.0 2.0 0.00 0.24 0.04 99 1004.9
20260507023505 56 260 2.0 4.0 0.00 0.24 0.04 99 1005.0
20260507023005 56 270 1.0 4.0 0.00 0.24 0.04 99 1005.0
20260507023003 56 282 2.0 4.0 0.00 0.26 0.04 99 1006.7
20260507022504 56 85 1.0 2.0 0.00 0.26 0.04 99 1006.7
20260507022005 56 86 1.0 2.0 0.00 0.24 0.04 99 1004.5
20260507022003 56 93 1.0 2.0 0.00 0.26 0.04 99 1006.5
20260507021505 56 72 2.0 2.0 0.00 0.24 0.04 99 1004.7
20260507021005 56 327 2.0 2.0 0.00 0.24 0.04 99 1004.7
20260507020504 56 323 1.0 2.0 0.00 0.24 0.04 99 1004.7
20260507020010 56 78 1.0 3.0 0.00 0.26 0.04 99 1006.6
20260507015504 56 92 2.0 3.0 0.00 0.24 0.04 99 1005.0
20260507015005 56 58 2.0 3.0 0.00 0.24 0.04 99 1004.9
20260507015003 56 83 2.0 3.0 0.00 0.26 0.04 99 1006.6
20260507014505 56 20 3.0 4.0 0.00 0.24 0.04 99 1004.8
20260507014004 56 34 3.0 4.0 0.00 0.26 0.04 99 1006.5
20260507013505 56 8 3.0 4.0 0.00 0.24 0.04 99 1004.8
20260507013005 56 85 3.0 4.0 0.00 0.24 0.04 99 1004.7
20260507013003 56 105 3.0 4.0 0.00 0.26 0.04 99 1006.5
20260507012504 56 110 3.0 4.0 0.00 0.24 0.04 99 1004.5
20260507012005 56 122 4.0 4.0 0.00 0.24 0.04 99 1004.5
20260507012003 56 99 3.0 4.0 0.00 0.26 0.04 99 1006.3
20260507011505 56 89 4.0 5.0 0.00 0.24 0.04 99 1004.5
20260507011503 56 90 4.0 4.0 0.00 0.26 0.04 99 1006.3
20260507010505 57 42 3.0 4.0 0.00 0.24 0.04 99 1004.6
20260507010503 56 43 4.0 5.0 0.00 0.26 0.04 99 1006.3
20260507010010 57 28 2.0 4.0 0.00 0.26 0.04 99 1006.5
20260507010005 57 17 3.0 4.0 0.00 0.24 0.04 99 1004.6
20260507005504 57 82 3.0 4.0 0.00 0.24 0.04 99 1004.7
20260507005005 57 4 4.0 6.0 0.00 0.24 0.04 98 1004.7
20260507004505 57 336 6.0 10.0 0.00 0.24 0.04 98 1004.7
20260507004004 57 325 5.0 10.0 0.00 0.24 0.04 98 1004.8
20260507003505 57 331 4.0 8.0 0.00 0.24 0.04 98 1004.9
20260507003004 57 356 3.0 7.0 0.00 0.26 0.04 99 1006.5
20260507002505 57 333 3.0 5.0 0.00 0.24 0.04 98 1005.1
20260507002503 57 349 3.0 4.0 0.00 0.26 0.04 99 1006.6
20260507002005 57 318 2.0 4.0 0.01 0.24 0.04 98 1004.9
20260507002003 57 353 2.0 4.0 0.00 0.26 0.04 99 1006.5
20260507001504 57 319 2.0 4.0 0.02 0.24 0.04 98 1005.0
20260507001004 57 341 2.0 4.0 0.02 0.26 0.04 99 1007.0
20260507000505 57 326 2.0 3.0 0.02 0.24 0.04 96 1005.1
20260507000503 57 346 2.0 3.0 0.02 0.26 0.04 99 1006.9
20260507000010 57 352 2.0 4.0 0.02 0.26 0.04 99 1006.9
20260507000005 57 338 2.0 4.0 0.02 0.24 0.04 96 1005.2
20260506235505 57 341 3.0 4.0 0.02 0.24 0.04 96 1005.4
20260506235503 57 14 3.0 4.0 0.02 0.26 0.04 99 1007.0
20260506235004 57 38 4.0 6.0 0.02 0.26 0.04 99 1006.8
20260506234504 57 26 3.0 6.0 0.02 0.26 0.04 99 1006.8
20260506234005 57 341 3.0 4.0 0.02 0.24 0.04 95 1005.1
20260506234003 57 340 3.0 4.0 0.02 0.26 0.04 99 1006.7
20260506233505 57 4 4.0 5.0 0.02 0.24 0.04 95 1005.1
20260506233004 57 337 4.0 8.0 0.02 0.24 0.04 95 1005.0
20260506232505 57 312 4.0 8.0 0.02 0.24 0.04 95 1005.2
20260506232503 57 291 4.0 9.0 0.02 0.26 0.04 97 1006.7
20260506232005 57 319 4.0 7.0 0.01 0.22 0.02 95 1005.4
20260506231505 58 317 4.0 7.0 0.00 0.21 0.01 95 1005.4
20260506231005 58 308 4.0 6.0 0.01 0.21 0.01 95 1005.1
20260506231003 57 314 4.0 6.0 0.01 0.24 0.01 97 1007.0
20260506230504 58 298 4.0 6.0 0.01 0.21 0.01 94 1005.3
20260506230009 58 302 3.0 4.0 0.01 0.24 0.01 96 1006.7
20260506230005 58 298 3.0 4.0 0.01 0.21 0.01 94 1005.1
20260506225504 58 350 4.0 7.0 0.01 0.24 0.01 96 1006.6
20260506225005 58 311 4.0 8.0 0.01 0.21 0.01 94 1004.7
20260506224504 58 357 3.0 4.0 0.01 0.24 0.01 95 1006.5
20260506224005 58 5 3.0 5.0 0.01 0.21 0.01 94 1004.8